TimeEDT,TemperatureF,Dew PointF,Humidity,Sea Level PressureIn,VisibilityMPH,Wind Direction,Wind SpeedMPH,Gust SpeedMPH,PrecipitationIn,Events,Conditions,WindDirDegrees,DateUTC
12:15 AM,26.2,24.6,94,30.24,7.0,Calm,Calm,-,N/A,,Clear,0,2013-03-30 04:15:00
12:35 AM,25.9,24.6,95,30.24,7.0,Calm,Calm,-,N/A,,Clear,0,2013-03-30 04:35:00
12:55 AM,25.5,23.9,94,30.24,7.0,Calm,Calm,-,N/A,,Clear,0,2013-03-30 04:55:00
1:15 AM,25.0,23.5,94,30.24,7.0,Calm,Calm,-,N/A,,Scattered Clouds,0,2013-03-30 05:15:00
1:35 AM,25.0,23.5,94,30.24,5.0,Calm,Calm,-,N/A,,Overcast,0,2013-03-30 05:35:00
2:15 AM,25.3,24.6,97,30.24,0.2,Calm,Calm,-,N/A,Fog,Light Freezing Fog,0,2013-03-30 06:15:00
2:35 AM,26.8,26.1,97,30.24,0.2,Calm,Calm,-,N/A,Fog,Light Freezing Fog,0,2013-03-30 06:35:00
2:55 AM,28.0,27.5,98,30.24,0.2,Calm,Calm,-,N/A,Fog,Light Freezing Fog,0,2013-03-30 06:55:00
3:15 AM,27.5,27.1,99,30.24,0.2,Calm,Calm,-,N/A,Fog,Light Freezing Fog,0,2013-03-30 07:15:00
3:34 AM,26.8,26.4,99,30.23,0.2,Calm,Calm,-,N/A,Snow,Light Snow,0,2013-03-30 07:34:00
3:55 AM,25.9,25.5,99,30.23,0.2,Calm,Calm,-,N/A,Fog,Light Freezing Fog,0,2013-03-30 07:55:00
4:15 AM,24.8,24.4,99,30.22,0.2,Calm,Calm,-,N/A,Fog,Light Freezing Fog,0,2013-03-30 08:15:00
4:35 AM,24.4,23.9,98,30.22,0.5,Calm,Calm,-,N/A,Fog,Light Freezing Fog,0,2013-03-30 08:35:00
4:55 AM,23.5,22.8,97,30.21,5.0,Calm,Calm,-,N/A,,Scattered Clouds,0,2013-03-30 08:55:00
5:14 AM,23.5,22.8,97,30.21,7.0,Calm,Calm,-,N/A,,Clear,0,2013-03-30 09:14:00
5:35 AM,22.5,21.4,96,30.21,7.0,Calm,Calm,-,N/A,,Clear,0,2013-03-30 09:35:00
5:55 AM,22.3,21.2,96,30.21,7.0,Calm,Calm,-,N/A,,Clear,0,2013-03-30 09:55:00
6:15 AM,21.9,20.8,96,30.22,7.0,Calm,Calm,-,N/A,,Clear,0,2013-03-30 10:15:00
6:35 AM,20.7,19.4,95,30.22,7.0,Calm,Calm,-,N/A,,Clear,0,2013-03-30 10:35:00
6:55 AM,20.5,19.0,94,30.21,7.0,Calm,Calm,-,N/A,,Clear,0,2013-03-30 10:55:00
7:15 AM,20.7,19.2,94,30.21,7.0,Calm,Calm,-,N/A,,Clear,0,2013-03-30 11:15:00
7:35 AM,20.7,19.2,94,30.21,7.0,Calm,Calm,-,N/A,,Clear,0,2013-03-30 11:35:00
7:55 AM,20.7,19.2,94,30.21,7.0,Calm,Calm,-,N/A,,Clear,0,2013-03-30 11:55:00
8:15 AM,22.1,20.8,95,30.19,7.0,Calm,Calm,-,N/A,,Clear,0,2013-03-30 12:15:00
8:35 AM,25.5,24.3,95,30.19,5.0,Calm,Calm,-,N/A,,Clear,0,2013-03-30 12:35:00
8:55 AM,28.4,27.3,96,30.19,5.0,Calm,Calm,-,N/A,,Clear,0,2013-03-30 12:55:00
9:15 AM,30.7,28.9,93,30.18,10.0,Calm,Calm,-,N/A,,Clear,0,2013-03-30 13:15:00
9:34 AM,32.4,29.3,88,30.19,10.0,Calm,Calm,-,N/A,,Clear,0,2013-03-30 13:34:00
9:55 AM,34.7,29.7,82,30.18,10.0,Calm,Calm,-,N/A,,Clear,0,2013-03-30 13:55:00
10:15 AM,37.9,27.3,66,30.17,10.0,South,3.5,-,N/A,,Clear,170,2013-03-30 14:15:00
10:35 AM,41.4,23.4,49,30.17,10.0,South,6.9,-,N/A,,Clear,180,2013-03-30 14:35:00
10:55 AM,43.2,22.6,44,30.16,10.0,SSE,5.8,-,N/A,,Clear,150,2013-03-30 14:55:00
11:15 AM,45.0,21.9,40,30.15,10.0,SW,6.9,-,N/A,,Clear,220,2013-03-30 15:15:00
11:35 AM,46.0,19.6,35,30.15,10.0,SSW,6.9,-,N/A,,Clear,200,2013-03-30 15:35:00
11:55 AM,47.7,16.0,28,30.14,10.0,SSW,6.9,-,N/A,,Clear,210,2013-03-30 15:55:00
12:15 PM,48.9,17.8,29,30.13,10.0,South,6.9,-,N/A,,Clear,190,2013-03-30 16:15:00
12:35 PM,50.0,16.0,26,30.12,10.0,South,4.6,-,N/A,,Clear,180,2013-03-30 16:35:00
12:54 PM,50.9,19.0,28,30.12,10.0,SSW,9.2,18.4,N/A,,Clear,200,2013-03-30 16:54:00
1:15 PM,52.2,19.8,28,30.11,10.0,Calm,Calm,-,N/A,,Clear,0,2013-03-30 17:15:00
1:35 PM,52.7,19.6,27,30.09,10.0,WSW,10.4,-,N/A,,Clear,240,2013-03-30 17:35:00
1:54 PM,53.6,19.4,26,30.07,10.0,WSW,8.1,-,N/A,,Clear,240,2013-03-30 17:54:00
2:14 PM,54.1,22.6,29,30.07,10.0,WSW,12.7,-,N/A,,Clear,240,2013-03-30 18:14:00
2:35 PM,53.1,26.2,35,30.06,10.0,SW,11.5,-,N/A,,Clear,230,2013-03-30 18:35:00
2:55 PM,53.4,27.0,36,30.05,10.0,WSW,8.1,-,N/A,,Clear,240,2013-03-30 18:55:00
3:15 PM,53.2,26.2,35,30.03,10.0,SW,6.9,-,N/A,,Clear,230,2013-03-30 19:15:00
3:35 PM,54.3,26.8,35,30.02,10.0,Calm,Calm,-,N/A,,Clear,0,2013-03-30 19:35:00
3:55 PM,55.4,24.8,31,30.01,10.0,SSW,6.9,-,N/A,,Clear,200,2013-03-30 19:55:00
4:15 PM,54.5,26.4,34,30.00,10.0,West,9.2,-,N/A,,Clear,280,2013-03-30 20:15:00
4:35 PM,54.0,28.0,37,29.99,10.0,West,6.9,-,N/A,,Clear,260,2013-03-30 20:35:00
4:55 PM,55.4,27.3,34,29.98,10.0,SW,8.1,-,N/A,,Clear,220,2013-03-30 20:55:00
5:15 PM,56.1,27.9,34,29.97,10.0,WSW,8.1,-,N/A,,Clear,240,2013-03-30 21:15:00
5:35 PM,56.7,28.8,34,29.96,10.0,SW,5.8,-,N/A,,Clear,230,2013-03-30 21:35:00
5:55 PM,56.1,29.7,36,29.96,10.0,South,10.4,16.1,N/A,,Clear,180,2013-03-30 21:55:00
6:15 PM,56.5,29.7,36,29.95,10.0,South,11.5,17.3,N/A,,Scattered Clouds,180,2013-03-30 22:15:00
6:35 PM,56.3,29.3,36,29.94,10.0,South,11.5,18.4,N/A,,Scattered Clouds,190,2013-03-30 22:35:00
6:55 PM,56.3,28.8,35,29.94,10.0,SSW,10.4,19.6,N/A,,Clear,200,2013-03-30 22:55:00
7:15 PM,55.6,28.8,36,29.94,10.0,SSW,10.4,18.4,N/A,,Clear,200,2013-03-30 23:15:00
7:35 PM,54.5,29.5,38,29.93,10.0,South,11.5,16.1,N/A,,Clear,180,2013-03-30 23:35:00
7:55 PM,53.1,30.6,42,29.93,10.0,South,8.1,-,N/A,,Scattered Clouds,180,2013-03-30 23:55:00
8:15 PM,52.3,30.7,44,29.92,10.0,South,6.9,-,N/A,,Scattered Clouds,180,2013-03-31 00:15:00
8:35 PM,51.8,30.2,44,29.92,10.0,South,4.6,-,N/A,,Scattered Clouds,190,2013-03-31 00:35:00
8:54 PM,50.9,30.7,46,29.92,10.0,South,4.6,-,N/A,,Scattered Clouds,190,2013-03-31 00:54:00
9:15 PM,48.7,32.0,52,29.92,10.0,South,4.6,-,N/A,,Scattered Clouds,170,2013-03-31 01:15:00
9:35 PM,48.6,32.5,54,29.92,10.0,South,4.6,-,N/A,,Scattered Clouds,180,2013-03-31 01:35:00
9:55 PM,49.1,32.2,52,29.92,10.0,South,4.6,-,N/A,,Mostly Cloudy,180,2013-03-31 01:55:00
10:15 PM,48.4,32.9,55,29.92,10.0,South,4.6,-,N/A,,Overcast,170,2013-03-31 02:15:00
10:35 PM,48.2,33.1,56,29.91,10.0,South,4.6,-,N/A,,Overcast,180,2013-03-31 02:35:00
10:55 PM,48.6,32.5,54,29.91,10.0,South,3.5,-,N/A,,Overcast,190,2013-03-31 02:55:00
11:15 PM,49.3,32.0,51,29.90,10.0,South,4.6,-,N/A,,Overcast,190,2013-03-31 03:15:00
11:34 PM,49.5,32.0,51,29.89,10.0,SSW,4.6,-,N/A,,Overcast,200,2013-03-31 03:34:00
11:55 PM,49.3,32.4,52,29.89,10.0,South,3.5,-,N/A,,Light Drizzle,190,2013-03-31 03:55:00